Juneau, WI

4:32 AM CST on December 10, 2019 (GMT -0600)
Dodge County

Weather History for KUNU - October, 2019

Change the Weather History Date:

Thursday, October 31, 2019

  Actual Average Record
Temperature  
Mean Temperature 26 °F -  
Max Temperature 32 °F 50 °F 71 °F (1974)
Min Temperature 18 °F 36 °F 21 °F (1993)
Degree Days  
Heating Degree Days 39    
Moisture  
Dew Point 24 °F    
Average Humidity 85    
Maximum Humidity 96    
Minimum Humidity 64    
Precipitation  
Precipitation 0.01 in - - ()
Sea Level Pressure  
Sea Level Pressure 29.96 in    
Wind  
Wind Speed 10 mph ()    
Max Wind Speed 16 mph    
Max Gust Speed 25 mph    
Visibility 5.1 miles    
Events Snow    
Averages and records for this station are not official NWS values.
T = Trace of Precipitation, MM = Missing Value Source: Averaged Metar Reports

Daily Weather History Graph

Daily Weather History Graph

Search for Another Location

Airport or City:

Astronomy

Oct. 31, 2019 Rise Set
Actual Time 7:28 AM CDT 5:47 PM CDT
Civil Twilight 6:58 AM CDT 6:17 PM CDT
Nautical Twilight 6:25 AM CDT 6:50 PM CDT
Astronomical Twilight 5:51 AM CDT 7:24 PM CDT
Moon 11:21 AM CDT (10/31) 8:38 PM CDT (10/31)
Length of Visible Light 11h 18m
Length of Day
10h 19m
Waxing Crescent, 16% of the Moon is Illuminated
Oct 31
Waxing Crescent
Nov 4
First Quarter
Nov 12
Full
Nov 19
Last Quarter
Nov 26
New

Hourly Weather History & Observations

Time (CDT) Temp. Windchill Dew Point Humidity Pressure Visibility Wind Dir Wind Speed Gust Speed Precip Events Conditions
12:15 AM 29.1 °F 19.4 °F 28.0 °F 96% 30.05 in 4.0 mi NNW 11.5 mph 16.1 mph N/A Snow Light Snow
12:35 AM 28.9 °F 19.2 °F 27.5 °F 94% 30.04 in 3.0 mi NNW 11.5 mph 17.3 mph N/A Snow Light Snow
12:55 AM 28.8 °F 18.4 °F 27.5 °F 95% 30.03 in 1.8 mi North 12.7 mph 18.4 mph N/A Snow Light Snow
1:15 AM 28.4 °F 18.5 °F 27.5 °F 96% 30.03 in 2.0 mi NNW 11.5 mph 17.3 mph N/A Snow Light Snow
1:35 AM 28.4 °F 18.0 °F 27.5 °F 96% 30.01 in 2.5 mi NNW 12.7 mph - N/A Snow Light Snow
1:55 AM 28.4 °F 18.0 °F 27.3 °F 96% 30.00 in 1.8 mi NNW 12.7 mph 18.4 mph N/A Snow Light Snow
2:15 AM 28.4 °F 19.7 °F 27.5 °F 96% 30.03 in 1.0 mi NNW 9.2 mph - 0.01 in Snow Snow
2:35 AM 28.2 °F 18.3 °F 27.0 °F 95% 29.98 in 4.0 mi North 11.5 mph 18.4 mph 0.01 in Snow Light Snow
3:15 AM 28.0 °F 18.6 °F 26.6 °F 94% 29.99 in 1.5 mi NNW 10.4 mph 20.7 mph N/A Snow Light Snow
3:35 AM 27.9 °F 17.8 °F 26.6 °F 95% 29.99 in 2.5 mi NNW 11.5 mph 18.4 mph N/A Snow Light Snow
3:55 AM 28.0 °F 17.5 °F 26.4 °F 94% 29.97 in 3.0 mi NNW 12.7 mph 18.4 mph N/A Snow Light Snow
4:15 AM 27.9 °F 18.4 °F 26.4 °F 94% 29.97 in 3.0 mi NNW 10.4 mph - N/A Snow Light Snow
4:35 AM 27.9 °F 17.8 °F 26.6 °F 95% 29.97 in 2.5 mi NNW 11.5 mph 16.1 mph N/A Snow Light Snow
4:55 AM 27.9 °F 16.3 °F 26.4 °F 94% 29.96 in 4.0 mi NNW 15.0 mph 20.7 mph N/A Snow Light Snow
5:15 AM 27.9 °F 16.3 °F 26.4 °F 94% 29.95 in 2.5 mi NNW 15.0 mph 19.6 mph N/A Snow Light Snow
5:35 AM 27.9 °F 17.3 °F 26.4 °F 94% 29.95 in 2.5 mi NNW 12.7 mph 18.4 mph N/A Snow Light Snow
5:55 AM 27.9 °F 17.3 °F 26.4 °F 94% 29.95 in 2.5 mi NNW 12.7 mph 18.4 mph N/A Snow Light Snow
6:15 AM 27.5 °F 17.4 °F 26.6 °F 96% 29.93 in 1.8 mi NNW 11.5 mph 17.3 mph N/A Snow Light Snow
6:35 AM 27.5 °F 19.3 °F 26.6 °F 96% 29.92 in 1.8 mi NNW 8.1 mph - N/A Snow Light Snow
6:55 AM 27.7 °F 17.6 °F 26.6 °F 96% 29.92 in 1.2 mi NNW 11.5 mph 17.3 mph N/A Snow Light Snow
7:15 AM 27.9 °F 16.8 °F 26.6 °F 95% 29.91 in 1.0 mi NNW 13.8 mph 17.3 mph N/A Snow Light Snow
7:35 AM 27.9 °F 19.1 °F 26.6 °F 95% 29.91 in 1.2 mi NNW 9.2 mph 16.1 mph N/A Snow Light Snow
7:55 AM 27.9 °F 17.3 °F 26.6 °F 95% 29.92 in 2.5 mi NNW 12.7 mph 19.6 mph N/A Snow Light Snow
8:15 AM 27.9 °F 17.3 °F 26.6 °F 95% 29.91 in 2.0 mi NNW 12.7 mph 17.3 mph N/A Snow Light Snow
8:35 AM 27.9 °F 17.8 °F 26.4 °F 94% 29.91 in 2.0 mi NNW 11.5 mph 16.1 mph N/A Snow Light Snow
8:55 AM 27.5 °F 16.8 °F 26.2 °F 95% 29.90 in 1.8 mi NNW 12.7 mph 18.4 mph N/A Snow Light Snow
9:15 AM 27.9 °F 18.4 °F 26.4 °F 94% 29.90 in 1.5 mi NNW 10.4 mph 20.7 mph N/A Snow Light Snow
9:35 AM 28.2 °F 18.3 °F 26.6 °F 94% 29.90 in 1.2 mi NNW 11.5 mph 19.6 mph N/A Snow Light Snow
9:55 AM 28.4 °F 17.5 °F 26.6 °F 93% 29.89 in 1.0 mi NNW 13.8 mph 18.4 mph N/A Snow Light Snow
10:15 AM 28.4 °F 18.5 °F 26.6 °F 93% 29.90 in 1.0 mi NNW 11.5 mph 20.7 mph N/A Snow Light Snow
10:35 AM 28.4 °F 17.0 °F 26.6 °F 93% 29.89 in 1.0 mi NNW 15.0 mph 20.7 mph N/A Snow Light Snow
10:55 AM 28.8 °F 17.5 °F 26.1 °F 90% 29.90 in 1.5 mi NNW 15.0 mph 24.2 mph N/A Snow Light Snow
11:15 AM 29.1 °F 17.5 °F 26.4 °F 90% 29.90 in 1.0 mi NNW 16.1 mph 25.3 mph N/A Snow Light Snow
11:35 AM 29.1 °F 18.9 °F 26.4 °F 90% 29.90 in 1.2 mi NW 12.7 mph 21.9 mph N/A Snow Light Snow
11:55 AM 29.1 °F 18.4 °F 26.1 °F 88% 29.90 in 2.5 mi NW 13.8 mph 18.4 mph N/A Snow Light Snow
12:15 PM 29.3 °F 18.2 °F 26.2 °F 88% 29.90 in 2.5 mi NW 15.0 mph 21.9 mph N/A Snow Light Snow
1:15 PM 29.3 °F 19.1 °F 26.4 °F 89% 29.90 in 2.0 mi NW 12.7 mph 18.4 mph N/A Snow Light Snow
1:35 PM 29.8 °F 20.3 °F 26.2 °F 86% 29.90 in 3.0 mi NW 11.5 mph 18.4 mph N/A Snow Light Snow
1:55 PM 30.0 °F 21.1 °F 26.8 °F 88% 29.90 in 2.5 mi WNW 10.4 mph 18.4 mph N/A Snow Light Snow
2:15 PM 30.0 °F 20.0 °F 26.8 °F 88% 29.90 in 2.5 mi NW 12.7 mph 18.4 mph N/A Snow Light Snow
2:35 PM 30.4 °F 21.5 °F 26.4 °F 85% 29.91 in 10.0 mi WNW 10.4 mph 18.4 mph N/A   Overcast
2:55 PM 30.4 °F 24.5 °F 26.4 °F 85% 29.91 in 10.0 mi WNW 5.8 mph - N/A   Overcast
3:15 PM 31.1 °F 24.5 °F 24.6 °F 77% 29.91 in 10.0 mi WNW 6.9 mph 16.1 mph N/A   Overcast
3:35 PM 32.0 °F 25.6 °F 24.1 °F 73% 29.92 in 10.0 mi WNW 6.9 mph 17.3 mph N/A   Mostly Cloudy
3:55 PM 32.0 °F 23.6 °F 22.3 °F 67% 29.92 in 10.0 mi WNW 10.4 mph 19.6 mph N/A   Overcast
4:15 PM 31.3 °F 21.6 °F 22.1 °F 69% 29.93 in 10.0 mi WNW 12.7 mph 21.9 mph N/A   Overcast
4:35 PM 31.5 °F 23.5 °F 21.4 °F 66% 29.94 in 10.0 mi WNW 9.2 mph 17.3 mph N/A   Overcast
4:55 PM 31.1 °F 22.4 °F 21.2 °F 67% 29.94 in 10.0 mi WNW 10.4 mph - N/A   Mostly Cloudy
5:15 PM 30.7 °F 21.4 °F 20.8 °F 67% 29.95 in 10.0 mi WNW 11.5 mph 18.4 mph N/A   Mostly Cloudy
5:35 PM 29.7 °F 23.7 °F 20.7 °F 69% 29.96 in 10.0 mi West 5.8 mph - N/A   Scattered Clouds
5:55 PM 28.6 °F 24.8 °F 19.9 °F 70% 29.97 in 10.0 mi West 3.5 mph - N/A   Scattered Clouds
6:15 PM 28.2 °F 23.1 °F 19.4 °F 70% 29.98 in 10.0 mi WNW 4.6 mph - N/A   Mostly Cloudy
6:35 PM 27.9 °F 19.8 °F 18.5 °F 68% 29.99 in 10.0 mi WNW 8.1 mph - N/A   Scattered Clouds
6:55 PM 27.7 °F 23.8 °F 18.5 °F 68% 30.00 in 10.0 mi West 3.5 mph - N/A   Mostly Cloudy
7:15 PM 27.9 °F 24.0 °F 19.0 °F 69% 30.01 in 10.0 mi West 3.5 mph - N/A   Overcast
7:35 PM 28.4 °F 22.2 °F 18.3 °F 66% 30.02 in 10.0 mi West 5.8 mph - N/A   Overcast
7:55 PM 28.2 °F 19.5 °F 17.6 °F 64% 30.03 in 10.0 mi West 9.2 mph - N/A   Overcast
8:35 PM 27.5 °F 20.2 °F 17.4 °F 66% 30.04 in 10.0 mi WNW 6.9 mph - N/A   Overcast
8:55 PM 27.3 °F 22.0 °F 17.4 °F 66% 30.05 in 10.0 mi West 4.6 mph - N/A   Overcast
9:15 PM 26.4 °F 22.4 °F 17.2 °F 68% 30.05 in 10.0 mi West 3.5 mph - N/A   Scattered Clouds
9:35 PM 25.7 °F - 17.1 °F 70% 30.06 in 10.0 mi Calm Calm - N/A   Clear
10:15 PM 20.1 °F 15.2 °F 15.4 °F 82% 30.07 in 10.0 mi WSW 3.5 mph - N/A   Clear
10:35 PM 21.0 °F 16.2 °F 15.6 °F 80% 30.08 in 10.0 mi WSW 3.5 mph - N/A   Clear
10:55 PM 20.3 °F 13.8 °F 15.1 °F 80% 30.08 in 10.0 mi WSW 4.6 mph - N/A   Clear
11:35 PM 18.0 °F - 14.7 °F 87% 30.08 in 10.0 mi Calm Calm - N/A   Clear